Oluja — V7QE8 — position and weather

sailwx.info

Track history (hours):
 
Tides and Currents Weather Stations Pressure Air Temp Water Temp Dewpoint Dewpoint Depression Visibility Wind Speed Wind Dir Waves Ship Positions

Oluja

Last reported at 2014-Oct-29 01:33 UTC. Time now 2014-Oct-31 20:53 UTC.
Position N 50°31' E 000°01'.

Length 188 m; draft 9.3 m.

Type: Cargo ship. MMSI: 538003345.

Date/timePositionNaut miles runAvg speedWind from/ knotsBaromVisibWave heightAir tempDewpointWater temp
2014-Oct-29 01:33N 50°31' E 000°01'10 9.9
2014-Oct-29 00:30N 50°34' E 000°17'9 9.1
2014-Oct-28 23:33N 50°36' E 000°30'9 9.2
2014-Oct-28 22:33N 50°41' E 000°42'1110.6
2014-Oct-28 21:33N 50°47' E 000°56'1211.8
2014-Oct-28 20:31N 50°55' E 001°11'1212.0
2014-Oct-28 19:33N 51°03' E 001°25'1110.6
2014-Oct-28 18:33N 51°10' E 001°37'10 9.9
2014-Oct-28 17:33N 51°17' E 001°48'9 9.3
2014-Oct-28 16:33N 51°25' E 001°57'9 8.7
2014-Oct-28 15:33N 51°32' E 002°05'9 8.8
2014-Oct-28 14:32N 51°39' E 002°14'13 9.7
2014-Oct-28 13:10N 51°49' E 002°28'811.1
2014-Oct-28 12:26N 51°56' E 002°36'1111.5
2014-Oct-28 11:30N 52°04' E 002°48'1412.0
2014-Oct-28 10:18N 52°15' E 003°03'911.1
2014-Oct-28 09:28N 52°23' E 003°06'1011.1
2014-Oct-28 08:33N 52°34' E 003°07'1110.3
2014-Oct-28 07:31N 52°44' E 003°07'10 9.6
2014-Oct-28 06:27N 52°53' E 003°15'9 9.3
2014-Oct-28 05:29N 53°02' E 003°19'10 9.4
2014-Oct-28 04:26N 53°11' E 003°25'91 9.9
2014-Oct-27 19:18N 54°27' E 004°50'269 8.6
2014-Oct-26 12:04N 57°48' E 010°11'5 9.0
2014-Oct-26 11:33N 57°48' E 010°19'10 9.9
2014-Oct-26 10:33N 57°49' E 010°38'7 7.0
2014-Oct-26 09:34N 57°44' E 010°46'4 4.0
2014-Oct-26 08:30N 57°42' E 010°40'0 0.0
2014-Oct-26 07:33N 57°42' E 010°40'0 0.0
2014-Oct-26 06:33N 57°42' E 010°39'0 0.0
2014-Oct-26 05:33N 57°42' E 010°39'0 0.0
2014-Oct-26 04:33N 57°42' E 010°40'0 0.0
2014-Oct-26 03:33N 57°42' E 010°40'6 5.9
2014-Oct-26 02:33N 57°41' E 010°51'1010.6
2014-Oct-26 01:33N 57°37' E 011°09'1212.3
2014-Oct-26 00:33N 57°29' E 011°26'1312.8
2014-Oct-25 23:33N 57°17' E 011°35'1312.6
2014-Oct-25 22:33N 57°05' E 011°42'1312.9
2014-Oct-25 21:32N 56°53' E 011°49'1111.5
2014-Oct-25 20:33N 56°41' E 011°50'  
2014-Oct-22 02:19N 56°37' E 011°42'911.2
2014-Oct-22 01:33N 56°44' E 011°51'1010.4
2014-Oct-22 00:33N 56°54' E 011°45'1110.5
2014-Oct-21 23:33N 57°04' E 011°39'1010.5
2014-Oct-21 22:33N 57°14' E 011°33'1110.5
2014-Oct-21 21:33N 57°24' E 011°26'10 9.9
2014-Oct-21 20:33N 57°32' E 011°15'1010.2
2014-Oct-21 19:33N 57°38' E 010°60'1211.4
2014-Oct-21 18:33N 57°40' E 010°38'2 0.9
2014-Oct-21 16:32N 57°41' E 010°35'0 0.0
2014-Oct-21 15:32N 57°41' E 010°35'0 0.0
2014-Oct-21 14:32N 57°41' E 010°36'0 0.0
2014-Oct-21 13:29N 57°41' E 010°36'0 0.0
2014-Oct-21 12:17N 57°41' E 010°36'1 1.8
2014-Oct-21 11:33N 57°41' E 010°38'5 5.1
2014-Oct-21 10:33N 57°44' E 010°46'6 5.9
2014-Oct-21 09:33N 57°49' E 010°42'1110.4
2014-Oct-21 08:33N 57°55' E 010°26'5 4.5
2014-Oct-21 07:33N 57°59' E 010°21'2 1.7
2014-Oct-21 06:33N 57°58' E 010°19'2 1.8
2014-Oct-21 05:31N 57°58' E 010°15'2 2.1
2014-Oct-21 04:33N 57°58' E 010°11'3 2.3
2014-Oct-21 03:06N 57°60' E 010°06'5 8.1
2014-Oct-21 02:31N 58°05' E 010°06'8 7.9
2014-Oct-21 01:33N 58°11' E 010°12'1 1.4
2014-Oct-21 00:33N 58°11' E 010°10'3 2.5
2014-Oct-20 23:19N 58°09' E 010°05'3 2.8
2014-Oct-20 22:20N 58°08' E 010°00'3 1.3
2014-Oct-20 20:06N 58°05' E 010°00'5 9.1
2014-Oct-20 19:33N 58°04' E 010°10'8 7.7
2014-Oct-20 18:33N 58°04' E 010°24'3 2.8
2014-Oct-20 17:33N 58°04' E 010°19'3 2.9
2014-Oct-20 16:33N 58°04' E 010°13'4 3.0
2014-Oct-20 15:14N 58°04' E 010°06'4 1.3
2014-Oct-20 12:16N 58°06' E 009°59'6 4.8
2014-Oct-20 11:07N 58°08' E 010°09'3 4.6
2014-Oct-20 10:33N 58°10' E 010°12'4 3.4
2014-Oct-20 09:31N 58°08' E 010°06'3 3.3
2014-Oct-20 08:27N 58°07' E 010°00'4 3.4
2014-Oct-20 07:12N 58°08' E 010°08'5 7.1
2014-Oct-20 06:33N 58°11' E 010°13'1 1.2
2014-Oct-20 05:33N 58°11' E 010°12'3 2.7
2014-Oct-20 04:33N 58°09' E 010°07'3 2.8
2014-Oct-20 03:31N 58°08' E 010°02'5110.0
2014-Oct-19 22:25N 57°31' E 008°55'1214.0
2014-Oct-19 21:33N 57°22' E 008°41'16613.9
2014-Oct-19 09:32N 55°06' E 005°46'1313.8
2014-Oct-19 08:33N 54°54' E 005°35'4213.8
2014-Oct-19 05:29N 54°17' E 005°01'1513.9
2014-Oct-19 04:23N 54°03' E 004°50'1113.5
2014-Oct-19 03:33N 53°52' E 004°51'1613.7
2014-Oct-19 02:21N 53°36' E 004°49'1114.2
2014-Oct-19 01:33N 53°25' E 004°42'  
Track history (hours):
 
Tides and Currents Weather Stations Pressure Air Temp Water Temp Dewpoint Dewpoint Depression Visibility Wind Speed Wind Dir Waves Ship Positions

Oluja

Last reported at 2014-Oct-29 01:33 UTC. Time now 2014-Oct-31 20:53 UTC.
Position N 50°31' E 000°01'.

Length 188 m; draft 9.3 m.

Type: Cargo ship. MMSI: 538003345.

Date/timePositionNaut miles runAvg speedWind from/ knotsBaromVisibWave heightAir tempDewpointWater temp
2014-Oct-29 01:33N 50°31' E 000°01'10 9.9
2014-Oct-29 00:30N 50°34' E 000°17'9 9.1
2014-Oct-28 23:33N 50°36' E 000°30'9 9.2
2014-Oct-28 22:33N 50°41' E 000°42'1110.6
2014-Oct-28 21:33N 50°47' E 000°56'1211.8
2014-Oct-28 20:31N 50°55' E 001°11'1212.0
2014-Oct-28 19:33N 51°03' E 001°25'1110.6
2014-Oct-28 18:33N 51°10' E 001°37'10 9.9
2014-Oct-28 17:33N 51°17' E 001°48'9 9.3
2014-Oct-28 16:33N 51°25' E 001°57'9 8.7
2014-Oct-28 15:33N 51°32' E 002°05'9 8.8
2014-Oct-28 14:32N 51°39' E 002°14'13 9.7
2014-Oct-28 13:10N 51°49' E 002°28'811.1
2014-Oct-28 12:26N 51°56' E 002°36'1111.5
2014-Oct-28 11:30N 52°04' E 002°48'1412.0
2014-Oct-28 10:18N 52°15' E 003°03'911.1
2014-Oct-28 09:28N 52°23' E 003°06'1011.1
2014-Oct-28 08:33N 52°34' E 003°07'1110.3
2014-Oct-28 07:31N 52°44' E 003°07'10 9.6
2014-Oct-28 06:27N 52°53' E 003°15'9 9.3
2014-Oct-28 05:29N 53°02' E 003°19'10 9.4
2014-Oct-28 04:26N 53°11' E 003°25'91 9.9
2014-Oct-27 19:18N 54°27' E 004°50'269 8.6
2014-Oct-26 12:04N 57°48' E 010°11'5 9.0
2014-Oct-26 11:33N 57°48' E 010°19'10 9.9
2014-Oct-26 10:33N 57°49' E 010°38'7 7.0
2014-Oct-26 09:34N 57°44' E 010°46'4 4.0
2014-Oct-26 08:30N 57°42' E 010°40'0 0.0
2014-Oct-26 07:33N 57°42' E 010°40'0 0.0
2014-Oct-26 06:33N 57°42' E 010°39'0 0.0
2014-Oct-26 05:33N 57°42' E 010°39'0 0.0
2014-Oct-26 04:33N 57°42' E 010°40'0 0.0
2014-Oct-26 03:33N 57°42' E 010°40'6 5.9
2014-Oct-26 02:33N 57°41' E 010°51'1010.6
2014-Oct-26 01:33N 57°37' E 011°09'1212.3
2014-Oct-26 00:33N 57°29' E 011°26'1312.8
2014-Oct-25 23:33N 57°17' E 011°35'1312.6
2014-Oct-25 22:33N 57°05' E 011°42'1312.9
2014-Oct-25 21:32N 56°53' E 011°49'1111.5
2014-Oct-25 20:33N 56°41' E 011°50'  
2014-Oct-22 02:19N 56°37' E 011°42'911.2
2014-Oct-22 01:33N 56°44' E 011°51'1010.4
2014-Oct-22 00:33N 56°54' E 011°45'1110.5
2014-Oct-21 23:33N 57°04' E 011°39'1010.5
2014-Oct-21 22:33N 57°14' E 011°33'1110.5
2014-Oct-21 21:33N 57°24' E 011°26'10 9.9
2014-Oct-21 20:33N 57°32' E 011°15'1010.2
2014-Oct-21 19:33N 57°38' E 010°60'1211.4
2014-Oct-21 18:33N 57°40' E 010°38'2 0.9
2014-Oct-21 16:32N 57°41' E 010°35'0 0.0
2014-Oct-21 15:32N 57°41' E 010°35'0 0.0
2014-Oct-21 14:32N 57°41' E 010°36'0 0.0
2014-Oct-21 13:29N 57°41' E 010°36'0 0.0
2014-Oct-21 12:17N 57°41' E 010°36'1 1.8
2014-Oct-21 11:33N 57°41' E 010°38'5 5.1
2014-Oct-21 10:33N 57°44' E 010°46'6 5.9
2014-Oct-21 09:33N 57°49' E 010°42'1110.4
2014-Oct-21 08:33N 57°55' E 010°26'5 4.5
2014-Oct-21 07:33N 57°59' E 010°21'2 1.7
2014-Oct-21 06:33N 57°58' E 010°19'2 1.8
2014-Oct-21 05:31N 57°58' E 010°15'2 2.1
2014-Oct-21 04:33N 57°58' E 010°11'3 2.3
2014-Oct-21 03:06N 57°60' E 010°06'5 8.1
2014-Oct-21 02:31N 58°05' E 010°06'8 7.9
2014-Oct-21 01:33N 58°11' E 010°12'1 1.4
2014-Oct-21 00:33N 58°11' E 010°10'3 2.5
2014-Oct-20 23:19N 58°09' E 010°05'3 2.8
2014-Oct-20 22:20N 58°08' E 010°00'3 1.3
2014-Oct-20 20:06N 58°05' E 010°00'5 9.1
2014-Oct-20 19:33N 58°04' E 010°10'8 7.7
2014-Oct-20 18:33N 58°04' E 010°24'3 2.8
2014-Oct-20 17:33N 58°04' E 010°19'3 2.9
2014-Oct-20 16:33N 58°04' E 010°13'4 3.0
2014-Oct-20 15:14N 58°04' E 010°06'4 1.3
2014-Oct-20 12:16N 58°06' E 009°59'6 4.8
2014-Oct-20 11:07N 58°08' E 010°09'3 4.6
2014-Oct-20 10:33N 58°10' E 010°12'4 3.4
2014-Oct-20 09:31N 58°08' E 010°06'3 3.3
2014-Oct-20 08:27N 58°07' E 010°00'4 3.4
2014-Oct-20 07:12N 58°08' E 010°08'5 7.1
2014-Oct-20 06:33N 58°11' E 010°13'1 1.2
2014-Oct-20 05:33N 58°11' E 010°12'3 2.7
2014-Oct-20 04:33N 58°09' E 010°07'3 2.8
2014-Oct-20 03:31N 58°08' E 010°02'5110.0
2014-Oct-19 22:25N 57°31' E 008°55'1214.0
2014-Oct-19 21:33N 57°22' E 008°41'16613.9
2014-Oct-19 09:32N 55°06' E 005°46'1313.8
2014-Oct-19 08:33N 54°54' E 005°35'4213.8
2014-Oct-19 05:29N 54°17' E 005°01'1513.9
2014-Oct-19 04:23N 54°03' E 004°50'1113.5
2014-Oct-19 03:33N 53°52' E 004°51'1613.7
2014-Oct-19 02:21N 53°36' E 004°49'1114.2
2014-Oct-19 01:33N 53°25' E 004°42'  

Dump ship's entire track history